This demonstration page uses our WeatherBlox Daily Observations layout. Learn more.

Left ArrowRight Arrow

44.89941, -97.11507

Hourly Observations for September 18, 2018

Temp ( °F °C ) Dew Point ( °F °C ) Humidity (%) Winds ( mph kmh ) Pressure ( in mb ) Visibility ( mi km ) Precip ( " mm )
12:53 am 00:53 Cloudy 56 13.3 53 11.7 90 90 E 8 13 29.98 1015 10 16 0.00 0.00
1:53 am 01:53 Mostly Cloudy 55 12.8 53 11.7 93 93 NNE 5 7 29.96 1015 10 16 0.00 0.00
2:53 am 02:53 Mostly Cloudy 55 12.8 53 11.7 93 93 E 3 6 29.95 1014 10 16 0.00 0.00
3:26 am 03:26 Cloudy 56 13.3 54 12.2 93 93 NE 3 6 29.94 1014 10 16 0.00 0.00
3:53 am 03:53 Mostly Cloudy 57 13.9 53 11.7 87 87 ENE 6 9 29.92 1013 10 16 0.00 0.00
4:00 am 04:00 Mostly Cloudy 57 13.9 54 12.2 90 90 NE 3 6 29.94 1014 10 16 0.00 0.00
4:53 am 04:53 Clear 56 13.3 54 12.2 93 93 NNE 6 9 29.93 1013 10 16 0.00 0.00
5:17 am 05:17 Mostly Cloudy with Thunderstorms 57 13.9 54 12.2 90 90 undefined N/A 30.03 1017 10 16 0.00 0.03
5:53 am 05:53 Cloudy with Strong Thunderstorms 56 13.3 55 12.8 97 97 N 12 19 30.01 1016 4 6 0.21 5.33
6:10 am 06:10 Cloudy with Nearby Thunderstorms 57 13.9 56 13.3 96 96 SE 5 7 29.97 1015 8 13 0.03 0.76
6:35 am 06:35 Cloudy with Light Rain 57 13.9 56 13.3 96 96 SE 16 26 29.91 1013 8 13 0.08 2.03
6:53 am 06:53 Cloudy with Light Rain 56 13.3 56 13.3 100 100 N 21 33 29.92 1013 10 16 0.09 2.29
7:05 am 07:05 Cloudy with Light Rain 56 13.3 55 12.8 97 97 N 21 33 29.94 1014 10 16 0.00 0.03
7:11 am 07:11 Mostly Cloudy 55 12.8 55 12.8 100 100 N 18 30 29.94 1014 10 16 0.00 0.03
7:23 am 07:23 Partly Cloudy 55 12.8 54 12.2 96 96 N 15 24 29.94 1014 10 16 0.00 0.03
7:45 am 07:45 Mostly Sunny 53 11.7 53 11.7 100 100 N 14 22 29.94 1014 10 16 0.00 0.03
7:53 am 07:53 Mostly Sunny 53 11.7 53 11.7 100 100 NNE 15 24 29.93 1014 10 16 0.00 0.03
8:53 am 08:53 Sunny 53 11.7 52 11.1 96 96 NNE 13 20 29.94 1014 10 16 0.00 0.00
9:53 am 09:53 Sunny 56 13.3 52 11.1 87 87 NE 16 26 29.97 1015 10 16 0.00 0.00
10:53 am 10:53 Sunny 58 14.4 52 11.1 81 81 NE 14 22 29.98 1015 10 16 0.00 0.00
11:53 am 11:53 Sunny 63 17.2 54 12.2 73 73 NE 12 19 29.98 1015 10 16 0.00 0.00
12:53 pm 12:53 Sunny 65 18.3 55 12.8 70 70 ENE 7 11 29.97 1015 10 16 0.00 0.00
1:53 pm 13:53 Sunny 67 19.4 56 13.3 68 68 E 8 13 29.98 1015 10 16 0.00 0.00
2:53 pm 14:53 Sunny 69 20.6 57 13.9 66 66 E 9 15 29.95 1014 10 16 0.00 0.00
3:53 pm 15:53 Sunny 70 21.1 57 13.9 64 64 NE 12 19 29.93 1014 10 16 0.00 0.00
4:53 pm 16:53 Mostly Sunny 69 20.6 57 13.9 66 66 ENE 8 13 29.93 1014 10 16 0.00 0.00
5:53 pm 17:53 Cloudy 68 20 58 14.4 70 70 ENE 7 11 29.94 1014 10 16 0.00 0.00
6:53 pm 18:53 Cloudy 66 18.9 57 13.9 73 73 ENE 8 13 29.93 1013 10 16 0.00 0.00
7:32 pm 19:32 Cloudy 66 18.9 57 13.9 73 73 ENE 7 11 29.91 1013 10 16 0.00 0.00
7:53 pm 19:53 Cloudy 65 18.3 57 13.9 76 76 ENE 7 11 29.95 1014 10 16 0.00 0.00
8:10 pm 20:10 Cloudy 65 18.3 57 13.9 76 76 ENE 7 11 29.91 1013 10 16 0.00 0.00
8:53 pm 20:53 Cloudy 65 18.3 57 13.9 76 76 ENE 6 9 29.96 1015 10 16 0.00 0.00
9:53 pm 21:53 Cloudy 64 17.8 59 15 84 84 ENE 5 7 29.96 1015 10 16 0.00 0.00
10:53 pm 22:53 Cloudy 63 17.2 60 15.6 90 90 E 6 9 29.96 1015 10 16 0.00 0.00
11:21 pm 23:21 Cloudy 63 17.2 61 16.1 93 93 E 3 6 29.94 1014 9 14 0.00 0.00
11:39 pm 23:39 Cloudy with Mist and Fog 63 17.2 61 16.1 93 93 E 5 7 29.94 1014 6 10 0.00 0.00
11:53 pm 23:53 Cloudy with Light Rain 62 16.7 62 16.7 100 100 ESE 6 9 29.96 1015 5 8 0.01 0.25

Powered by AerisWeather